Time,TemperatureF,DewpointF,PressureIn,WindDirection,WindDirectionDegrees,WindSpeedMPH,WindSpeedGustMPH,Humidity,HourlyPrecipIn,Conditions,Clouds,dailyrainin,SoftwareType,DateUTC
2013-03-22 00:00:00,57.0,46.2,29.87,SSE,168,0.0,6.0,67,0.00,,,0.00,meteohub,2013-03-22 04:00:00,
2013-03-22 00:01:00,57.0,46.2,29.87,SE,125,4.0,8.0,67,0.00,,,0.00,meteohub,2013-03-22 04:01:00,
2013-03-22 00:03:00,57.0,46.2,29.88,SE,128,0.0,8.0,67,0.00,,,0.00,meteohub,2013-03-22 04:03:00,
2013-03-22 00:09:00,57.2,46.8,29.88,SSE,147,4.0,8.0,68,0.00,,,0.00,meteohub,2013-03-22 04:09:00,
2013-03-22 00:14:00,57.2,46.8,29.88,SSE,157,5.0,8.0,68,0.00,,,0.00,meteohub,2013-03-22 04:14:00,
2013-03-22 00:19:00,57.4,46.9,29.87,SSE,161,0.0,8.0,68,0.00,,,0.00,meteohub,2013-03-22 04:19:00,
2013-03-22 00:24:00,57.2,46.8,29.88,SSE,161,0.0,8.0,68,0.00,,,0.00,meteohub,2013-03-22 04:24:00,
2013-03-22 00:29:00,57.2,46.8,29.88,SSE,167,4.0,6.0,68,0.00,,,0.00,meteohub,2013-03-22 04:29:00,
2013-03-22 00:34:00,57.4,46.9,29.88,SSE,167,2.0,8.0,68,0.00,,,0.00,meteohub,2013-03-22 04:34:00,
2013-03-22 00:39:00,57.4,46.9,29.88,SSE,167,0.0,8.0,68,0.00,,,0.00,meteohub,2013-03-22 04:39:00,
2013-03-22 00:45:00,57.6,47.5,29.89,SE,132,0.0,7.0,69,0.00,,,0.00,meteohub,2013-03-22 04:45:00,
2013-03-22 00:50:00,57.6,47.1,29.89,SE,132,1.0,6.0,68,0.00,,,0.00,meteohub,2013-03-22 04:50:00,
2013-03-22 00:55:00,57.6,47.5,29.89,SSE,153,0.0,6.0,69,0.00,,,0.00,meteohub,2013-03-22 04:55:00,
2013-03-22 01:00:00,57.6,47.5,29.90,SSE,153,0.0,5.0,69,0.00,,,0.00,meteohub,2013-03-22 05:00:00,
2013-03-22 01:06:00,57.6,47.5,29.90,SSE,153,0.0,5.0,69,0.00,,,0.00,meteohub,2013-03-22 05:06:00,
2013-03-22 01:11:00,57.6,47.5,29.89,SSE,153,1.0,4.0,69,0.00,,,0.00,meteohub,2013-03-22 05:11:00,
2013-03-22 01:17:00,57.6,47.5,29.88,SSE,163,0.0,6.0,69,0.00,,,0.00,meteohub,2013-03-22 05:17:00,
2013-03-22 01:22:00,57.6,47.5,29.88,SSE,157,2.0,6.0,69,0.00,,,0.00,meteohub,2013-03-22 05:22:00,
2013-03-22 01:27:00,57.7,47.7,29.88,SE,146,1.0,6.0,69,0.00,,,0.00,meteohub,2013-03-22 05:27:00,
2013-03-22 01:32:00,57.7,47.7,29.88,SSE,159,0.0,7.0,69,0.00,,,0.00,meteohub,2013-03-22 05:32:00,
2013-03-22 01:37:00,57.7,47.7,29.88,SSE,159,0.0,7.0,69,0.00,,,0.00,meteohub,2013-03-22 05:37:00,
2013-03-22 01:42:00,57.7,47.7,29.88,SE,126,0.0,7.0,69,0.00,,,0.00,meteohub,2013-03-22 05:42:00,
2013-03-22 01:47:00,57.7,48.0,29.88,SSE,161,4.0,6.0,70,0.00,,,0.00,meteohub,2013-03-22 05:47:00,
2013-03-22 01:53:00,57.7,48.0,29.88,SSE,168,4.0,7.0,70,0.00,,,0.00,meteohub,2013-03-22 05:53:00,
2013-03-22 01:58:00,57.7,48.0,29.88,SSE,155,5.0,7.0,70,0.00,,,0.00,meteohub,2013-03-22 05:58:00,
2013-03-22 02:03:00,57.7,48.0,29.88,SE,145,2.0,9.0,70,0.00,,,0.00,meteohub,2013-03-22 06:03:00,
2013-03-22 02:08:00,57.7,48.0,29.88,SSE,167,5.0,9.0,70,0.00,,,0.00,meteohub,2013-03-22 06:08:00,
2013-03-22 02:13:00,57.9,48.2,29.87,SSE,153,5.0,11.0,70,0.00,,,0.00,meteohub,2013-03-22 06:13:00,
2013-03-22 02:18:00,57.9,48.2,29.86,SSE,158,6.0,11.0,70,0.00,,,0.00,meteohub,2013-03-22 06:18:00,
2013-03-22 02:24:00,57.7,48.0,29.86,SSE,167,5.0,11.0,70,0.00,,,0.00,meteohub,2013-03-22 06:24:00,
2013-03-22 02:29:00,57.7,48.0,29.85,SSE,159,4.0,12.0,70,0.00,,,0.00,meteohub,2013-03-22 06:29:00,
2013-03-22 02:34:00,57.7,48.4,29.83,SSE,150,5.0,12.0,71,0.00,,,0.00,meteohub,2013-03-22 06:34:00,
2013-03-22 02:39:00,57.6,48.2,29.83,SSE,151,7.0,12.0,71,0.00,,,0.00,meteohub,2013-03-22 06:39:00,
2013-03-22 02:44:00,57.6,48.6,29.83,SSE,161,5.0,12.0,72,0.00,,,0.00,meteohub,2013-03-22 06:44:00,
2013-03-22 02:50:00,57.7,48.7,29.84,SE,142,8.0,12.0,72,0.00,,,0.00,meteohub,2013-03-22 06:50:00,
2013-03-22 02:55:00,57.7,48.7,29.84,SSE,152,8.0,11.0,72,0.00,,,0.00,meteohub,2013-03-22 06:55:00,
2013-03-22 03:00:00,57.7,48.7,29.84,SSE,162,6.0,10.0,72,0.00,,,0.00,meteohub,2013-03-22 07:00:00,
2013-03-22 03:05:00,57.7,48.7,29.84,SSE,148,5.0,11.0,72,0.00,,,0.00,meteohub,2013-03-22 07:05:00,
2013-03-22 03:10:00,57.9,48.9,29.83,SSE,162,7.0,12.0,72,0.00,,,0.00,meteohub,2013-03-22 07:10:00,
2013-03-22 03:16:00,57.9,49.3,29.83,SSE,163,8.0,12.0,73,0.00,,,0.00,meteohub,2013-03-22 07:16:00,
2013-03-22 03:21:00,57.9,49.3,29.82,South,170,5.0,12.0,73,0.00,,,0.00,meteohub,2013-03-22 07:21:00,
2013-03-22 03:26:00,57.7,49.1,29.82,SE,144,7.0,13.0,73,0.00,,,0.00,meteohub,2013-03-22 07:26:00,
2013-03-22 03:31:00,57.9,49.3,29.82,SSE,153,5.0,13.0,73,0.00,,,0.00,meteohub,2013-03-22 07:31:00,
2013-03-22 03:36:00,57.7,49.5,29.81,South,173,1.0,13.0,74,0.00,,,0.00,meteohub,2013-03-22 07:36:00,
2013-03-22 03:41:00,57.7,49.5,29.81,SSE,166,4.0,11.0,74,0.00,,,0.00,meteohub,2013-03-22 07:41:00,
2013-03-22 03:47:00,57.7,49.5,29.80,SSE,166,4.0,11.0,74,0.00,,,0.00,meteohub,2013-03-22 07:47:00,
2013-03-22 03:52:00,57.6,49.6,29.80,SSE,157,1.0,11.0,75,0.00,,,0.00,meteohub,2013-03-22 07:52:00,
2013-03-22 03:57:00,57.6,49.6,29.80,SSE,155,6.0,9.0,75,0.00,,,0.00,meteohub,2013-03-22 07:57:00,
2013-03-22 04:02:00,57.6,49.6,29.80,SSE,163,4.0,9.0,75,0.00,,,0.00,meteohub,2013-03-22 08:02:00,
2013-03-22 04:08:00,57.6,50.0,29.80,SSE,163,0.0,9.0,76,0.00,,,0.00,meteohub,2013-03-22 08:08:00,
2013-03-22 04:13:00,57.7,50.2,29.80,SSE,168,0.0,9.0,76,0.00,,,0.00,meteohub,2013-03-22 08:13:00,
2013-03-22 04:18:00,57.7,50.2,29.79,SSE,150,4.0,6.0,76,0.00,,,0.00,meteohub,2013-03-22 08:18:00,
2013-03-22 04:23:00,57.7,50.2,29.79,SSE,159,4.0,6.0,76,0.00,,,0.00,meteohub,2013-03-22 08:23:00,
2013-03-22 04:28:00,57.7,50.2,29.79,SSE,161,1.0,6.0,76,0.00,,,0.00,meteohub,2013-03-22 08:28:00,
2013-03-22 04:33:00,57.7,50.5,29.78,SSE,161,0.0,6.0,77,0.00,,,0.00,meteohub,2013-03-22 08:33:00,
2013-03-22 04:38:00,57.9,50.7,29.78,SSE,161,2.0,6.0,77,0.00,,,0.00,meteohub,2013-03-22 08:38:00,
2013-03-22 04:43:00,57.9,50.7,29.78,South,179,0.0,6.0,77,0.00,,,0.00,meteohub,2013-03-22 08:43:00,
2013-03-22 04:48:00,57.9,51.1,29.78,SSE,161,5.0,6.0,78,0.00,,,0.00,meteohub,2013-03-22 08:48:00,
2013-03-22 04:54:00,58.1,51.3,29.78,SSE,168,1.0,9.0,78,0.00,,,0.00,meteohub,2013-03-22 08:54:00,
2013-03-22 04:59:00,58.1,51.6,29.78,SSE,160,4.0,9.0,79,0.00,,,0.00,meteohub,2013-03-22 08:59:00,
2013-03-22 05:04:00,58.3,51.8,29.78,SSE,160,2.0,9.0,79,0.00,,,0.00,meteohub,2013-03-22 09:04:00,
2013-03-22 05:10:00,58.3,51.8,29.77,SSE,161,7.0,10.0,79,0.00,,,0.00,meteohub,2013-03-22 09:10:00,
2013-03-22 05:15:00,58.3,51.8,29.77,SSE,159,5.0,9.0,79,0.00,,,0.00,meteohub,2013-03-22 09:15:00,
2013-03-22 05:20:00,58.3,52.2,29.77,SSE,167,2.0,12.0,80,0.00,,,0.00,meteohub,2013-03-22 09:20:00,
2013-03-22 05:25:00,58.1,52.0,29.77,SSE,167,4.0,12.0,80,0.00,,,0.00,meteohub,2013-03-22 09:25:00,
2013-03-22 05:31:00,58.1,52.0,29.77,SSE,167,2.0,7.0,80,0.00,,,0.00,meteohub,2013-03-22 09:31:00,
2013-03-22 05:36:00,58.1,52.0,29.76,SSE,167,4.0,7.0,80,0.00,,,0.00,meteohub,2013-03-22 09:36:00,
2013-03-22 05:41:00,57.9,51.8,29.76,SSE,166,5.0,7.0,80,0.00,,,0.00,meteohub,2013-03-22 09:41:00,
2013-03-22 05:46:00,57.9,52.2,29.76,SSE,163,7.0,7.0,81,0.00,,,0.00,meteohub,2013-03-22 09:46:00,
2013-03-22 05:51:00,58.1,52.3,29.76,SSE,153,1.0,8.0,81,0.00,,,0.00,meteohub,2013-03-22 09:51:00,
2013-03-22 05:57:00,58.3,52.5,29.76,SSE,163,2.0,8.0,81,0.00,,,0.00,meteohub,2013-03-22 09:57:00,
2013-03-22 06:02:00,58.3,52.9,29.76,SSE,164,4.0,8.0,82,0.00,,,0.00,meteohub,2013-03-22 10:02:00,
2013-03-22 06:07:00,58.5,53.1,29.76,SSE,155,6.0,9.0,82,0.00,,,0.00,meteohub,2013-03-22 10:07:00,
2013-03-22 06:12:00,58.6,53.2,29.76,SSE,163,4.0,9.0,82,0.00,,,0.00,meteohub,2013-03-22 10:12:00,
2013-03-22 06:17:00,58.6,53.2,29.76,SSE,162,4.0,8.0,82,0.00,,,0.00,meteohub,2013-03-22 10:17:00,
2013-03-22 06:22:00,58.8,53.6,29.76,SSE,151,7.0,8.0,83,0.00,,,0.00,meteohub,2013-03-22 10:22:00,
2013-03-22 06:28:00,59.0,53.8,29.77,SSE,168,6.0,10.0,83,0.00,,,0.00,meteohub,2013-03-22 10:28:00,
2013-03-22 06:33:00,59.2,54.0,29.77,SSE,156,5.0,10.0,83,0.00,,,0.00,meteohub,2013-03-22 10:33:00,
2013-03-22 06:38:00,59.2,54.0,29.77,SSE,164,2.0,10.0,83,0.00,,,0.00,meteohub,2013-03-22 10:38:00,
2013-03-22 06:43:00,59.4,54.1,29.77,SSE,162,5.0,9.0,83,0.00,,,0.00,meteohub,2013-03-22 10:43:00,
2013-03-22 06:48:00,59.4,54.1,29.78,South,169,1.0,9.0,83,0.00,,,0.00,meteohub,2013-03-22 10:48:00,
2013-03-22 06:54:00,59.5,54.7,29.77,South,171,4.0,9.0,84,0.00,,,0.00,meteohub,2013-03-22 10:54:00,
2013-03-22 06:59:00,59.5,54.7,29.78,SSE,153,9.0,9.0,84,0.00,,,0.00,meteohub,2013-03-22 10:59:00,
2013-03-22 07:04:00,59.5,54.7,29.78,South,169,0.0,9.0,84,0.00,,,0.00,meteohub,2013-03-22 11:04:00,
2013-03-22 07:09:00,59.5,55.0,29.78,SSE,159,2.0,12.0,85,0.00,,,0.00,meteohub,2013-03-22 11:09:00,
2013-03-22 07:15:00,59.7,55.2,29.79,SSE,155,4.0,12.0,85,0.00,,,0.00,meteohub,2013-03-22 11:15:00,
2013-03-22 07:20:00,59.7,55.2,29.78,SSE,159,5.0,12.0,85,0.00,,,0.00,meteohub,2013-03-22 11:20:00,
2013-03-22 07:25:00,59.7,55.2,29.79,SSE,161,0.0,6.0,85,0.00,,,0.00,meteohub,2013-03-22 11:25:00,
2013-03-22 07:30:00,59.9,55.4,29.80,SSE,161,4.0,6.0,85,0.00,,,0.00,meteohub,2013-03-22 11:30:00,
2013-03-22 07:35:00,60.1,55.6,29.79,SSE,163,2.0,7.0,85,0.00,,,0.00,meteohub,2013-03-22 11:35:00,
2013-03-22 07:40:00,60.1,55.9,29.80,SE,140,0.0,8.0,86,0.00,,,0.00,meteohub,2013-03-22 11:40:00,
2013-03-22 07:45:00,60.1,55.9,29.80,SSE,159,0.0,8.0,86,0.00,,,0.00,meteohub,2013-03-22 11:45:00,
2013-03-22 07:51:00,60.3,56.1,29.79,SSE,154,6.0,8.0,86,0.00,,,0.00,meteohub,2013-03-22 11:51:00,
2013-03-22 07:56:00,60.3,56.1,29.80,SSE,155,5.0,8.0,86,0.00,,,0.00,meteohub,2013-03-22 11:56:00,
2013-03-22 08:01:00,60.3,56.1,29.80,SE,135,6.0,7.0,86,0.00,,,0.00,meteohub,2013-03-22 12:01:00,
2013-03-22 08:06:00,60.3,56.1,29.80,ESE,123,4.0,8.0,86,0.00,,,0.00,meteohub,2013-03-22 12:06:00,
2013-03-22 08:11:00,60.4,56.3,29.81,SSE,153,0.0,8.0,86,0.00,,,0.00,meteohub,2013-03-22 12:11:00,
2013-03-22 08:17:00,60.4,56.3,29.81,East,90,0.0,8.0,86,0.00,,,0.00,meteohub,2013-03-22 12:17:00,
2013-03-22 08:22:00,60.4,56.5,29.81,SE,145,0.0,6.0,87,0.00,,,0.00,meteohub,2013-03-22 12:22:00,
2013-03-22 08:27:00,60.6,56.7,29.82,SE,145,0.0,7.0,87,0.00,,,0.00,meteohub,2013-03-22 12:27:00,
2013-03-22 08:32:00,60.6,56.7,29.82,SE,145,0.0,7.0,87,0.00,,,0.00,meteohub,2013-03-22 12:32:00,
2013-03-22 08:38:00,60.8,56.8,29.82,SE,145,0.0,4.0,87,0.00,,,0.00,meteohub,2013-03-22 12:38:00,
2013-03-22 08:43:00,61.0,57.0,29.82,SSE,161,5.0,5.0,87,0.00,,,0.00,meteohub,2013-03-22 12:43:00,
2013-03-22 08:48:00,61.0,57.0,29.82,SSE,148,0.0,9.0,87,0.00,,,0.00,meteohub,2013-03-22 12:48:00,
2013-03-22 08:53:00,61.2,57.2,29.82,SSE,157,0.0,9.0,87,0.00,,,0.00,meteohub,2013-03-22 12:53:00,
2013-03-22 08:58:00,61.2,57.6,29.82,SSE,166,0.0,9.0,88,0.00,,,0.00,meteohub,2013-03-22 12:58:00,
2013-03-22 09:04:00,61.2,57.6,29.82,South,188,0.0,7.0,88,0.00,,,0.00,meteohub,2013-03-22 13:04:00,
2013-03-22 09:09:00,61.2,57.6,29.83,South,173,0.0,8.0,88,0.00,,,0.00,meteohub,2013-03-22 13:09:00,
2013-03-22 09:14:00,61.3,58.1,29.83,SSE,166,2.0,8.0,89,0.00,,,0.00,meteohub,2013-03-22 13:14:00,
2013-03-22 09:19:00,61.3,58.1,29.83,SE,143,4.0,8.0,89,0.00,,,0.00,meteohub,2013-03-22 13:19:00,
2013-03-22 09:25:00,61.3,58.5,29.83,SSE,162,0.0,9.0,90,0.00,,,0.00,meteohub,2013-03-22 13:25:00,
2013-03-22 09:30:00,61.5,58.8,29.82,SSE,151,8.0,8.0,91,0.00,,,0.00,meteohub,2013-03-22 13:30:00,
2013-03-22 09:35:00,61.7,59.0,29.82,South,169,6.0,10.0,91,0.00,,,0.00,meteohub,2013-03-22 13:35:00,
2013-03-22 09:40:00,61.9,59.2,29.82,SSE,156,5.0,13.0,91,0.00,,,0.00,meteohub,2013-03-22 13:40:00,
2013-03-22 09:46:00,62.1,59.4,29.82,South,178,1.0,13.0,91,0.00,,,0.00,meteohub,2013-03-22 13:46:00,
2013-03-22 09:51:00,62.2,59.5,29.82,SSE,161,0.0,10.0,91,0.00,,,0.00,meteohub,2013-03-22 13:51:00,
2013-03-22 09:56:00,62.4,59.7,29.82,SSE,158,7.0,10.0,91,0.00,,,0.00,meteohub,2013-03-22 13:56:00,
2013-03-22 10:02:00,62.6,59.9,29.82,SW,223,3.0,10.0,91,0.00,,,0.00,meteohub,2013-03-22 14:02:00,
2013-03-22 10:07:00,62.8,60.1,29.82,SSE,155,8.0,11.0,91,0.00,,,0.00,meteohub,2013-03-22 14:07:00,
2013-03-22 10:12:00,63.0,60.3,29.82,South,173,4.0,11.0,91,0.00,,,0.00,meteohub,2013-03-22 14:12:00,
2013-03-22 10:17:00,63.1,60.4,29.83,South,171,0.0,11.0,91,0.00,,,0.00,meteohub,2013-03-22 14:17:00,
2013-03-22 10:22:00,63.5,60.8,29.82,South,171,0.0,10.0,91,0.00,,,0.00,meteohub,2013-03-22 14:22:00,
2013-03-22 10:28:00,63.9,61.2,29.82,South,173,5.0,7.0,91,0.00,,,0.00,meteohub,2013-03-22 14:28:00,
2013-03-22 10:33:00,64.0,61.3,29.83,SSW,193,7.0,12.0,91,0.00,,,0.00,meteohub,2013-03-22 14:33:00,
2013-03-22 10:38:00,64.2,61.2,29.83,South,189,1.0,15.0,90,0.00,,,0.00,meteohub,2013-03-22 14:38:00,
2013-03-22 10:43:00,64.4,61.3,29.83,SSE,160,4.0,15.0,90,0.00,,,0.00,meteohub,2013-03-22 14:43:00,
2013-03-22 10:48:00,64.8,61.7,29.83,South,172,6.0,13.0,90,0.00,,,0.00,meteohub,2013-03-22 14:48:00,
2013-03-22 10:54:00,64.9,61.9,29.82,SSW,192,5.0,13.0,90,0.00,,,0.00,meteohub,2013-03-22 14:54:00,
2013-03-22 10:59:00,65.3,62.2,29.83,SSE,161,5.0,11.0,90,0.00,,,0.00,meteohub,2013-03-22 14:59:00,
2013-03-22 11:04:00,65.7,62.6,29.82,SSW,212,6.0,13.0,90,0.00,,,0.00,meteohub,2013-03-22 15:04:00,
2013-03-22 11:09:00,66.0,62.6,29.82,SSW,200,7.0,13.0,89,0.00,,,0.00,meteohub,2013-03-22 15:09:00,
2013-03-22 11:15:00,66.6,63.1,29.83,SSE,161,0.0,13.0,89,0.00,,,0.00,meteohub,2013-03-22 15:15:00,
2013-03-22 11:20:00,66.9,63.3,29.83,SSW,198,5.0,12.0,88,0.00,,,0.00,meteohub,2013-03-22 15:20:00,
2013-03-22 11:25:00,67.3,63.7,29.83,SE,146,0.0,13.0,88,0.00,,,0.00,meteohub,2013-03-22 15:25:00,
2013-03-22 11:30:00,67.5,63.9,29.83,SSW,212,7.0,13.0,88,0.00,,,0.00,meteohub,2013-03-22 15:30:00,
2013-03-22 11:36:00,67.5,63.5,29.83,SSW,204,1.0,10.0,87,0.00,,,0.00,meteohub,2013-03-22 15:36:00,
2013-03-22 11:41:00,67.6,63.7,29.83,SW,219,5.0,10.0,87,0.00,,,0.00,meteohub,2013-03-22 15:41:00,
2013-03-22 11:46:00,67.6,63.7,29.83,South,183,0.0,11.0,87,0.00,,,0.00,meteohub,2013-03-22 15:46:00,
2013-03-22 11:51:00,67.6,63.7,29.83,SSW,201,0.0,11.0,87,0.00,,,0.00,meteohub,2013-03-22 15:51:00,
2013-03-22 11:57:00,67.8,63.9,29.84,SW,219,3.0,11.0,87,0.00,,,0.00,meteohub,2013-03-22 15:57:00,
2013-03-22 12:02:00,67.8,63.9,29.84,SSW,199,7.0,8.0,87,0.00,,,0.00,meteohub,2013-03-22 16:02:00,
2013-03-22 12:07:00,68.0,64.0,29.84,SSW,213,0.0,11.0,87,0.00,,,0.00,meteohub,2013-03-22 16:07:00,
2013-03-22 12:12:00,68.0,64.0,29.84,South,186,0.0,11.0,87,0.00,,,0.00,meteohub,2013-03-22 16:12:00,
2013-03-22 12:17:00,68.2,64.2,29.84,South,173,5.0,11.0,87,0.00,,,0.00,meteohub,2013-03-22 16:17:00,
2013-03-22 12:22:00,68.4,64.4,29.84,South,188,0.0,6.0,87,0.00,,,0.00,meteohub,2013-03-22 16:22:00,
2013-03-22 12:27:00,68.5,64.6,29.85,SSW,200,0.0,6.0,87,0.00,,,0.00,meteohub,2013-03-22 16:27:00,
2013-03-22 12:32:00,68.5,64.6,29.85,SSW,212,3.0,6.0,87,0.00,,,0.00,meteohub,2013-03-22 16:32:00,
2013-03-22 12:38:00,68.7,64.8,29.84,SSE,165,4.0,5.0,87,0.00,,,0.00,meteohub,2013-03-22 16:38:00,
2013-03-22 12:43:00,68.9,64.9,29.84,SSE,161,1.0,8.0,87,0.00,,,0.00,meteohub,2013-03-22 16:43:00,
2013-03-22 12:48:00,69.1,64.8,29.84,SSE,150,6.0,8.0,86,0.00,,,0.00,meteohub,2013-03-22 16:48:00,
2013-03-22 12:53:00,69.1,64.8,29.84,SSE,151,6.0,8.0,86,0.00,,,0.00,meteohub,2013-03-22 16:53:00,
2013-03-22 12:59:00,69.3,64.9,29.84,SSE,158,2.0,8.0,86,0.00,,,0.00,meteohub,2013-03-22 16:59:00,
2013-03-22 13:04:00,69.3,64.9,29.84,SW,217,3.0,8.0,86,0.00,,,0.00,meteohub,2013-03-22 17:04:00,
2013-03-22 13:09:00,69.4,65.1,29.84,SSE,148,0.0,7.0,86,0.00,,,0.00,meteohub,2013-03-22 17:09:00,
2013-03-22 13:15:00,69.6,65.3,29.84,SSE,162,0.0,6.0,86,0.00,,,0.00,meteohub,2013-03-22 17:15:00,
2013-03-22 13:20:00,69.6,65.3,29.83,SSW,211,0.0,6.0,86,0.00,,,0.00,meteohub,2013-03-22 17:20:00,
2013-03-22 13:25:00,69.6,65.7,29.83,SSE,159,0.0,5.0,87,0.00,,,0.00,meteohub,2013-03-22 17:25:00,
2013-03-22 13:30:00,69.6,65.7,29.83,SSE,159,0.0,5.0,87,0.00,,,0.00,meteohub,2013-03-22 17:30:00,
2013-03-22 13:35:00,69.8,65.8,29.83,SSE,159,0.0,4.0,87,0.00,,,0.00,meteohub,2013-03-22 17:35:00,
2013-03-22 13:41:00,69.8,65.8,29.83,SSE,159,0.0,4.0,87,0.00,,,0.00,meteohub,2013-03-22 17:41:00,
2013-03-22 13:46:00,69.8,65.8,29.83,SSE,159,0.0,4.0,87,0.01,,,0.01,meteohub,2013-03-22 17:46:00,
2013-03-22 13:51:00,70.0,66.0,29.83,SSE,159,0.0,4.0,87,0.01,,,0.01,meteohub,2013-03-22 17:51:00,
2013-03-22 13:56:00,70.2,66.0,29.83,SSE,159,2.0,5.0,87,0.01,,,0.01,meteohub,2013-03-22 17:56:00,
2013-03-22 14:01:00,70.3,66.2,29.83,South,175,0.0,7.0,87,0.01,,,0.01,meteohub,2013-03-22 18:01:00,
2013-03-22 14:06:00,70.3,66.2,29.83,South,190,0.0,7.0,87,0.01,,,0.01,meteohub,2013-03-22 18:06:00,
2013-03-22 14:12:00,70.3,66.2,29.82,SSW,201,0.0,7.0,87,0.01,,,0.01,meteohub,2013-03-22 18:12:00,
2013-03-22 14:17:00,70.5,66.4,29.82,SSE,161,2.0,7.0,87,0.01,,,0.01,meteohub,2013-03-22 18:17:00,
2013-03-22 14:22:00,70.9,66.6,29.81,SSE,168,2.0,7.0,86,0.01,,,0.01,meteohub,2013-03-22 18:22:00,
2013-03-22 14:27:00,71.2,66.9,29.81,SSW,208,3.0,11.0,86,0.01,,,0.01,meteohub,2013-03-22 18:27:00,
2013-03-22 14:32:00,71.8,67.1,29.80,SE,142,6.0,11.0,85,0.01,,,0.01,meteohub,2013-03-22 18:32:00,
2013-03-22 14:37:00,72.1,67.5,29.80,SSE,148,2.0,11.0,85,0.01,,,0.01,meteohub,2013-03-22 18:37:00,
2013-03-22 14:42:00,72.5,67.5,29.80,SSE,157,9.0,10.0,84,0.00,,,0.01,meteohub,2013-03-22 18:42:00,
2013-03-22 14:47:00,72.5,67.5,29.80,SSE,163,6.0,11.0,84,0.00,,,0.01,meteohub,2013-03-22 18:47:00,
2013-03-22 14:53:00,72.7,67.3,29.79,SSE,164,0.0,11.0,83,0.00,,,0.01,meteohub,2013-03-22 18:53:00,
2013-03-22 14:58:00,72.9,67.5,29.79,SW,222,0.0,11.0,83,0.00,,,0.01,meteohub,2013-03-22 18:58:00,
2013-03-22 15:03:00,73.0,67.6,29.79,SSE,163,0.0,9.0,83,0.00,,,0.01,meteohub,2013-03-22 19:03:00,
2013-03-22 15:08:00,73.2,67.5,29.78,SSE,157,7.0,9.0,82,0.00,,,0.01,meteohub,2013-03-22 19:08:00,
2013-03-22 15:14:00,73.6,67.8,29.78,SW,216,4.0,9.0,82,0.00,,,0.01,meteohub,2013-03-22 19:14:00,
2013-03-22 15:19:00,73.9,68.2,29.78,SSW,194,2.0,9.0,82,0.00,,,0.01,meteohub,2013-03-22 19:19:00,
2013-03-22 15:24:00,74.1,68.0,29.78,South,184,1.0,9.0,81,0.00,,,0.01,meteohub,2013-03-22 19:24:00,
2013-03-22 15:29:00,74.7,68.0,29.78,SSE,150,0.0,9.0,80,0.00,,,0.01,meteohub,2013-03-22 19:29:00,
2013-03-22 15:34:00,75.0,68.4,29.78,South,178,1.0,9.0,80,0.00,,,0.01,meteohub,2013-03-22 19:34:00,
2013-03-22 15:39:00,75.2,68.2,29.77,South,182,5.0,9.0,79,0.00,,,0.01,meteohub,2013-03-22 19:39:00,
2013-03-22 15:45:00,75.4,68.0,29.77,South,175,1.0,9.0,78,0.00,,,0.01,meteohub,2013-03-22 19:45:00,
2013-03-22 15:50:00,75.6,68.2,29.76,South,181,2.0,13.0,78,0.00,,,0.01,meteohub,2013-03-22 19:50:00,
2013-03-22 15:55:00,75.9,68.2,29.76,SSE,160,8.0,13.0,77,0.00,,,0.01,meteohub,2013-03-22 19:55:00,
2013-03-22 16:00:00,76.5,68.4,29.75,South,190,0.0,13.0,76,0.00,,,0.01,meteohub,2013-03-22 20:00:00,
2013-03-22 16:05:00,76.8,68.4,29.75,SW,219,1.0,15.0,75,0.00,,,0.01,meteohub,2013-03-22 20:05:00,
2013-03-22 16:10:00,76.6,68.5,29.75,SW,219,3.0,15.0,76,0.00,,,0.01,meteohub,2013-03-22 20:10:00,
2013-03-22 16:16:00,76.3,68.5,29.75,SSE,159,1.0,8.0,77,0.00,,,0.01,meteohub,2013-03-22 20:16:00,
2013-03-22 16:21:00,76.6,68.5,29.75,South,170,6.0,9.0,76,0.00,,,0.01,meteohub,2013-03-22 20:21:00,
2013-03-22 16:26:00,76.6,68.5,29.74,SSW,206,2.0,10.0,76,0.00,,,0.01,meteohub,2013-03-22 20:26:00,
2013-03-22 16:31:00,76.5,68.4,29.75,South,188,0.0,10.0,76,0.00,,,0.01,meteohub,2013-03-22 20:31:00,
2013-03-22 16:36:00,76.5,68.4,29.74,SSE,167,0.0,10.0,76,0.00,,,0.01,meteohub,2013-03-22 20:36:00,
2013-03-22 16:41:00,76.6,68.5,29.74,SW,227,2.0,9.0,76,0.00,,,0.01,meteohub,2013-03-22 20:41:00,
2013-03-22 16:47:00,76.8,68.4,29.74,South,181,0.0,9.0,75,0.00,,,0.01,meteohub,2013-03-22 20:47:00,
2013-03-22 16:52:00,76.8,68.7,29.74,SE,141,4.0,9.0,76,0.00,,,0.01,meteohub,2013-03-22 20:52:00,
2013-03-22 16:57:00,76.6,68.5,29.74,South,180,0.0,7.0,76,0.00,,,0.01,meteohub,2013-03-22 20:57:00,
2013-03-22 17:02:00,76.6,68.5,29.74,SSE,166,4.0,7.0,76,0.00,,,0.01,meteohub,2013-03-22 21:02:00,
2013-03-22 17:07:00,77.0,68.9,29.74,SSE,165,4.0,6.0,76,0.00,,,0.01,meteohub,2013-03-22 21:07:00,
2013-03-22 17:12:00,77.4,68.9,29.74,WSW,243,2.0,11.0,75,0.00,,,0.01,meteohub,2013-03-22 21:12:00,
2013-03-22 17:17:00,77.5,68.5,29.73,NW,309,0.0,11.0,74,0.00,,,0.01,meteohub,2013-03-22 21:17:00,
2013-03-22 17:23:00,78.1,68.4,29.73,SSW,196,1.0,11.0,72,0.00,,,0.01,meteohub,2013-03-22 21:23:00,
2013-03-22 17:28:00,78.6,68.9,29.73,South,190,6.0,8.0,72,0.00,,,0.01,meteohub,2013-03-22 21:28:00,
2013-03-22 17:33:00,78.6,68.9,29.73,SSW,201,0.0,7.0,72,0.00,,,0.01,meteohub,2013-03-22 21:33:00,
2013-03-22 17:38:00,78.6,68.4,29.73,SW,215,1.0,7.0,71,0.00,,,0.01,meteohub,2013-03-22 21:38:00,
2013-03-22 17:43:00,79.2,68.9,29.73,South,169,0.0,7.0,71,0.00,,,0.01,meteohub,2013-03-22 21:43:00,
2013-03-22 17:48:00,79.2,68.5,29.73,SSE,162,2.0,6.0,70,0.00,,,0.01,meteohub,2013-03-22 21:48:00,
2013-03-22 17:53:00,79.2,68.9,29.73,WSW,241,0.0,7.0,71,0.00,,,0.01,meteohub,2013-03-22 21:53:00,
2013-03-22 17:58:00,79.3,68.7,29.73,SW,215,0.0,7.0,70,0.00,,,0.01,meteohub,2013-03-22 21:58:00,
2013-03-22 18:03:00,79.3,68.7,29.73,West,271,9.0,9.0,70,0.00,,,0.01,meteohub,2013-03-22 22:03:00,
2013-03-22 18:08:00,79.3,68.7,29.73,South,190,0.0,9.0,70,0.00,,,0.01,meteohub,2013-03-22 22:08:00,
2013-03-22 18:13:00,79.3,69.1,29.73,South,175,0.0,9.0,71,0.00,,,0.01,meteohub,2013-03-22 22:13:00,
2013-03-22 18:18:00,79.5,68.9,29.73,SSW,201,0.0,9.0,70,0.00,,,0.01,meteohub,2013-03-22 22:18:00,
2013-03-22 18:24:00,79.3,68.4,29.73,South,178,5.0,10.0,69,0.00,,,0.01,meteohub,2013-03-22 22:24:00,
2013-03-22 18:29:00,79.3,68.7,29.74,SSE,148,0.0,12.0,70,0.00,,,0.01,meteohub,2013-03-22 22:29:00,
2013-03-22 18:34:00,79.3,68.7,29.73,SSW,212,3.0,12.0,70,0.00,,,0.01,meteohub,2013-03-22 22:34:00,
2013-03-22 18:40:00,78.8,68.2,29.73,SSW,196,5.0,12.0,70,0.00,,,0.01,meteohub,2013-03-22 22:40:00,
2013-03-22 18:45:00,78.4,68.2,29.74,SSW,205,1.0,11.0,71,0.00,,,0.01,meteohub,2013-03-22 22:45:00,
2013-03-22 18:50:00,78.3,68.5,29.74,South,188,3.0,11.0,72,0.00,,,0.01,meteohub,2013-03-22 22:50:00,
2013-03-22 18:55:00,78.1,68.7,29.73,SSW,205,6.0,8.0,73,0.00,,,0.01,meteohub,2013-03-22 22:55:00,
2013-03-22 19:00:00,78.3,68.5,29.74,SSW,200,11.0,12.0,72,0.00,,,0.01,meteohub,2013-03-22 23:00:00,
2013-03-22 19:06:00,78.3,68.5,29.74,SSE,160,0.0,13.0,72,0.00,,,0.00,meteohub,2013-03-22 23:06:00,
2013-03-22 19:11:00,78.4,68.7,29.73,South,182,0.0,13.0,72,0.00,,,0.00,meteohub,2013-03-22 23:11:00,
2013-03-22 19:16:00,78.3,68.5,29.74,SSW,207,0.0,13.0,72,0.00,,,0.00,meteohub,2013-03-22 23:16:00,
2013-03-22 19:21:00,78.3,68.5,29.74,SSE,155,8.0,10.0,72,0.00,,,0.00,meteohub,2013-03-22 23:21:00,
2013-03-22 19:26:00,77.5,68.5,29.74,SSE,152,4.0,10.0,74,0.00,,,0.00,meteohub,2013-03-22 23:26:00,
2013-03-22 19:31:00,76.8,68.7,29.73,SSE,157,0.0,10.0,76,0.00,,,0.00,meteohub,2013-03-22 23:31:00,
2013-03-22 19:36:00,76.3,68.5,29.74,SSE,154,7.0,10.0,77,0.00,,,0.00,meteohub,2013-03-22 23:36:00,
2013-03-22 19:42:00,75.7,68.4,29.74,SSE,158,6.0,9.0,78,0.00,,,0.00,meteohub,2013-03-22 23:42:00,
2013-03-22 19:47:00,75.4,68.0,29.74,SSE,150,0.0,9.0,78,0.00,,,0.00,meteohub,2013-03-22 23:47:00,
2013-03-22 19:52:00,75.2,68.2,29.74,SSE,167,0.0,9.0,79,0.00,,,0.00,meteohub,2013-03-22 23:52:00,
2013-03-22 19:57:00,74.8,67.8,29.74,ESE,117,7.0,9.0,79,0.00,,,0.00,meteohub,2013-03-22 23:57:00,
2013-03-22 20:02:00,74.5,67.8,29.74,SE,140,5.0,10.0,80,0.00,,,0.00,meteohub,2013-03-23 00:02:00,
2013-03-22 20:07:00,74.1,67.6,29.74,SSE,150,11.0,11.0,80,0.00,,,0.00,meteohub,2013-03-23 00:07:00,
2013-03-22 20:12:00,73.8,67.6,29.74,SSE,161,5.0,11.0,81,0.00,,,0.00,meteohub,2013-03-23 00:12:00,
2013-03-22 20:17:00,73.6,67.5,29.74,SSE,148,4.0,11.0,81,0.00,,,0.00,meteohub,2013-03-23 00:17:00,
2013-03-22 20:23:00,73.0,67.3,29.74,SSE,156,5.0,12.0,82,0.00,,,0.00,meteohub,2013-03-23 00:23:00,
2013-03-22 20:28:00,72.7,66.9,29.75,SSE,165,6.0,12.0,82,0.00,,,0.00,meteohub,2013-03-23 00:28:00,
2013-03-22 20:33:00,72.3,66.9,29.75,SSE,159,7.0,12.0,83,0.00,,,0.00,meteohub,2013-03-23 00:33:00,
2013-03-22 20:38:00,72.0,66.6,29.75,SE,141,6.0,9.0,83,0.00,,,0.00,meteohub,2013-03-23 00:38:00,
2013-03-22 20:43:00,71.8,66.7,29.75,SSE,150,0.0,9.0,84,0.00,,,0.00,meteohub,2013-03-23 00:43:00,
2013-03-22 20:49:00,71.6,66.6,29.75,SE,145,8.0,9.0,84,0.00,,,0.00,meteohub,2013-03-23 00:49:00,
2013-03-22 20:54:00,71.2,66.2,29.75,SSE,150,0.0,9.0,84,0.00,,,0.00,meteohub,2013-03-23 00:54:00,
2013-03-22 20:59:00,71.1,66.4,29.75,SSE,164,5.0,9.0,85,0.00,,,0.00,meteohub,2013-03-23 00:59:00,
2013-03-22 21:04:00,70.9,66.2,29.76,SE,126,6.0,9.0,85,0.00,,,0.00,meteohub,2013-03-23 01:04:00,
2013-03-22 21:09:00,70.5,65.8,29.76,SSE,157,5.0,9.0,85,0.00,,,0.00,meteohub,2013-03-23 01:09:00,
2013-03-22 21:14:00,70.3,66.0,29.76,SSE,157,2.0,12.0,86,0.00,,,0.00,meteohub,2013-03-23 01:14:00,
2013-03-22 21:20:00,70.2,65.8,29.76,SE,137,4.0,12.0,86,0.00,,,0.00,meteohub,2013-03-23 01:20:00,
2013-03-22 21:25:00,70.0,65.7,29.77,SSE,165,4.0,11.0,86,0.00,,,0.00,meteohub,2013-03-23 01:25:00,
2013-03-22 21:30:00,69.8,65.5,29.77,SSE,161,8.0,9.0,86,0.00,,,0.00,meteohub,2013-03-23 01:30:00,
2013-03-22 21:36:00,69.4,65.5,29.78,SSE,161,0.0,9.0,87,0.00,,,0.00,meteohub,2013-03-23 01:36:00,
2013-03-22 21:41:00,69.3,65.3,29.78,SE,146,4.0,10.0,87,0.00,,,0.00,meteohub,2013-03-23 01:41:00,
2013-03-22 21:46:00,69.1,65.3,29.78,SSE,155,0.0,10.0,88,0.00,,,0.00,meteohub,2013-03-23 01:46:00,
2013-03-22 21:52:00,68.9,65.1,29.78,South,171,0.0,10.0,88,0.00,,,0.00,meteohub,2013-03-23 01:52:00,
2013-03-22 21:57:00,68.7,64.9,29.78,SSE,149,4.0,8.0,88,0.00,,,0.00,meteohub,2013-03-23 01:57:00,
2013-03-22 22:02:00,68.5,64.8,29.79,SE,135,0.0,7.0,88,0.00,,,0.00,meteohub,2013-03-23 02:02:00,
2013-03-22 22:07:00,68.4,64.6,29.78,SSE,154,0.0,7.0,88,0.00,,,0.00,meteohub,2013-03-23 02:07:00,
2013-03-22 22:12:00,68.2,64.8,29.79,SSE,159,0.0,7.0,89,0.00,,,0.00,meteohub,2013-03-23 02:12:00,
2013-03-22 22:17:00,68.2,64.8,29.79,SSE,168,0.0,7.0,89,0.00,,,0.00,meteohub,2013-03-23 02:17:00,
2013-03-22 22:22:00,68.0,64.6,29.79,SSE,168,0.0,5.0,89,0.00,,,0.00,meteohub,2013-03-23 02:22:00,
2013-03-22 22:28:00,67.8,64.4,29.80,SE,146,1.0,5.0,89,0.00,,,0.00,meteohub,2013-03-23 02:28:00,
2013-03-22 22:33:00,67.8,64.4,29.80,SE,146,0.0,4.0,89,0.00,,,0.00,meteohub,2013-03-23 02:33:00,
2013-03-22 22:38:00,67.6,64.2,29.80,SE,146,0.0,4.0,89,0.00,,,0.00,meteohub,2013-03-23 02:38:00,
2013-03-22 22:43:00,67.6,64.6,29.80,SE,146,2.0,4.0,90,0.00,,,0.00,meteohub,2013-03-23 02:43:00,
2013-03-22 22:48:00,67.5,64.4,29.80,South,172,1.0,6.0,90,0.00,,,0.00,meteohub,2013-03-23 02:48:00,
2013-03-22 22:53:00,67.5,64.4,29.80,SSE,164,0.0,6.0,90,0.00,,,0.00,meteohub,2013-03-23 02:53:00,
2013-03-22 22:59:00,67.5,64.4,29.80,SSE,164,0.0,6.0,90,0.00,,,0.00,meteohub,2013-03-23 02:59:00,
2013-03-22 23:04:00,67.5,64.4,29.81,SSE,165,2.0,6.0,90,0.00,,,0.00,meteohub,2013-03-23 03:04:00,
2013-03-22 23:09:00,67.5,64.4,29.81,SE,136,5.0,6.0,90,0.00,,,0.00,meteohub,2013-03-23 03:09:00,
2013-03-22 23:14:00,67.5,64.4,29.81,SE,141,0.0,6.0,90,0.00,,,0.00,meteohub,2013-03-23 03:14:00,
2013-03-22 23:19:00,67.6,64.6,29.81,South,171,0.0,6.0,90,0.00,,,0.00,meteohub,2013-03-23 03:19:00,
2013-03-22 23:25:00,67.6,64.6,29.81,South,169,0.0,6.0,90,0.00,,,0.00,meteohub,2013-03-23 03:25:00,
2013-03-22 23:30:00,67.6,64.6,29.81,SSE,157,0.0,6.0,90,0.00,,,0.00,meteohub,2013-03-23 03:30:00,
2013-03-22 23:35:00,67.6,64.6,29.81,SSE,158,0.0,6.0,90,0.00,,,0.00,meteohub,2013-03-23 03:35:00,
2013-03-22 23:40:00,67.6,64.6,29.81,SSE,159,0.0,6.0,90,0.00,,,0.00,meteohub,2013-03-23 03:40:00,
2013-03-22 23:46:00,67.6,64.9,29.81,SSE,159,0.0,6.0,91,0.00,,,0.00,meteohub,2013-03-23 03:46:00,
2013-03-22 23:51:00,67.6,64.9,29.81,SSE,159,0.0,1.0,91,0.00,,,0.00,meteohub,2013-03-23 03:51:00,
2013-03-22 23:56:00,67.6,64.9,29.81,SSE,159,0.0,0.0,91,0.00,,,0.00,meteohub,2013-03-23 03:56:00,